This is the latest recevied weather packets stored in our database for station/object LU3GHF-13. If no packets are shown the sender has not sent any weather packets the latest 10 day(s).
| Time | Temp. | Humidity | Pressure | Rain* | Wind** | Luminosity | Snow |
|---|---|---|---|---|---|---|---|
| 1788614621 | 18.33° C | 61% | 1015 hPa | - | - | - | - |
| 1788613992 | 17.78° C | 64% | 1014.8 hPa | - | - | - | - |
| 1788613344 | 18.33° C | 64% | 1014.8 hPa | - | - | - | - |
| 1788612725 | 17.78° C | 66% | 1014.8 hPa | - | - | - | - |
| 1788612070 | 17.22° C | 66% | 1014.8 hPa | - | - | - | - |
| 1788611448 | 17.22° C | 66% | 1014.8 hPa | - | - | - | - |
| 1788610824 | 17.22° C | 66% | 1014.6 hPa | - | - | - | - |
| 1788610205 | 17.22° C | 67% | 1014.5 hPa | - | - | - | - |
| 1788609581 | 17.22° C | 67% | 1014.3 hPa | - | - | - | - |
| 1788607734 | 17.22° C | 69% | 1013.7 hPa | - | - | - | - |
| 1788607084 | 16.67° C | 70% | 1013.5 hPa | - | - | - | - |
| 1788606478 | 17.22° C | 68% | 1013.4 hPa | - | - | - | - |
| 1788605859 | 16.67° C | 70% | 1013.4 hPa | - | - | - | - |
| 1788605234 | 16.67° C | 70% | 1013.4 hPa | - | - | - | - |
| 1788604594 | 16.67° C | 69% | 1013.3 hPa | - | - | - | - |
| 1788603981 | 16.67° C | 69% | 1013.5 hPa | - | - | - | - |
| 1788603381 | 17.22° C | 68% | 1013.3 hPa | - | - | - | - |
| 1788602167 | 17.22° C | 67% | 1013.1 hPa | - | - | - | - |
| 1788601516 | 17.22° C | 67% | 1013 hPa | - | - | - | - |
| 1788600889 | 16.67° C | 68% | 1012.7 hPa | - | - | - | - |
| 1788600285 | 17.22° C | 67% | 1012.6 hPa | - | - | - | - |
| 1788599630 | 16.67° C | 68% | 1012.3 hPa | - | - | - | - |
| 1788599028 | 17.22° C | 66% | 1012 hPa | - | - | - | - |
| 1788598380 | 16.67° C | 66% | 1011.8 hPa | - | - | - | - |
| 1788597745 | 16.67° C | 67% | 1011.4 hPa | - | - | - | - |
* Rain since midnight (hover to see other rain measurements)
** Current wind speed in m/s (hover to see current wind gust speed)